Location: Heiligenberg
(48.5381°N, 7.3897°E)
Time: 03:14:39
(UTC+00:00)

ADEOS II - Pass Details

Date: 26 May 2022
Orbit: 798 x 801 km, 98.6° (Epoch: 26 June)

Event Time Altitude Azimuth Distance (km) Brightness Sun altitude
Rises 01:36:52 0° 15° (NNE) 3,319 6.9 -14.6°
Reaches altitude 10° 01:39:13 10° 18° (NNE) 2,384 5.9 -14.4°
Maximum altitude 01:44:30 73° 103° (ESE) 838 2.2 -13.9°
Enters shadow 01:48:43 16° 187° (S) 1,974 3.6 -13.5°
